Precipitable_Water
0.41 0.44 0.48 0.50 0.51 0.51 0.51 0.51 0.51 0.52 0.56 0.58 0.59 0.59 0.59 0.60 0.68 0.71 0.67 0.66 0.62 0.59 0.63 0.62 0.61 0.60 0.61 0.60 0.57 0.59 0.57 0.55
0.41 0.45 0.48 0.51 0.53 0.52 0.52 0.51 0.54 0.55 0.56 0.56 0.55 0.54 0.56 0.57 0.61 0.65 0.70 0.69 0.65 0.62 0.59 0.63 0.62 0.59 0.60 0.61 0.59 0.57 0.56 0.57
0.42 0.48 0.51 0.52 0.53 0.54 0.54 0.56 0.57 0.59 0.60 0.60 0.60 0.60 0.59 0.60 0.63 0.65 0.69 0.67 0.66 0.63 0.61 0.60 0.60 0.60 0.59 0.59 0.61 0.59 0.58 0.58
0.44 0.48 0.52 0.55 0.56 0.58 0.60 0.62 0.61 0.62 0.62 0.62 0.62 0.62 0.61 0.60 0.61 0.64 0.66 0.66 0.65 0.63 0.64 0.65 0.64 0.63 0.60 0.61 0.60 0.56 0.54 0.57
0.49 0.52 0.54 0.56 0.59 0.63 0.63 0.65 0.66 0.67 0.67 0.63 0.60 0.58 0.56 0.58 0.58 0.60 0.62 0.64 0.63 0.65 0.66 0.68 0.66 0.64 0.61 0.62 0.62 0.59 0.57 0.49
0.52 0.55 0.57 0.59 0.62 0.64 0.66 0.67 0.68 0.69 0.69 0.69 0.64 0.61 0.61 0.62 0.60 0.59 0.60 0.62 0.65 0.69 0.70 0.68 0.66 0.65 0.63 0.62 0.58 0.54 0.53 0.45
0.56 0.59 0.60 0.62 0.66 0.68 0.69 0.70 0.70 0.71 0.70 0.70 0.67 0.64 0.64 0.63 0.61 0.59 0.59 0.60 0.61 0.62 0.62 0.61 0.61 0.59 0.58 0.58 0.56 0.52 0.43 0.42
0.56 0.57 0.62 0.67 0.70 0.71 0.73 0.75 0.73 0.73 0.69 0.72 0.71 0.70 0.69 0.65 0.62 0.60 0.58 0.56 0.56 0.56 0.57 0.57 0.58 0.57 0.56 0.56 0.54 0.50 0.45 0.41
0.61 0.66 0.70 0.72 0.73 0.73 0.75 0.74 0.71 0.69 0.65 0.65 0.69 0.70 0.69 0.67 0.66 0.62 0.58 0.56 0.55 0.56 0.56 0.57 0.55 0.54 0.55 0.56 0.55 0.44 0.41 0.40
0.67 0.70 0.72 0.73 0.73 0.75 0.75 0.73 0.69 0.64 0.61 0.61 0.61 0.61 0.60 0.62 0.60 0.58 0.56 0.55 0.54 0.55 0.55 0.54 0.53 0.55 0.58 0.48 0.43 0.39 0.38 0.36
0.65 0.68 0.69 0.71 0.73 0.75 0.74 0.71 0.66 0.61 0.58 0.56 0.55 0.54 0.54 0.56 0.57 0.55 0.54 0.56 0.56 0.58 0.59 0.59 0.59 0.51 0.46 0.41 0.39 0.37 0.35 0.34
0.64 0.67 0.72 0.74 0.74 0.74 0.72 0.68 0.63 0.56 0.54 0.53 0.51 0.50 0.51 0.51 0.51 0.52 0.55 0.58 0.55 0.53 0.53 0.50 0.47 0.42 0.41 0.38 0.35 0.33 0.31 0.29
0.65 0.68 0.70 0.70 0.69 0.70 0.67 0.65 0.60 0.53 0.52 0.49 0.48 0.47 0.46 0.45 0.47 0.49 0.49 0.48 0.47 0.48 0.46 0.43 0.41 0.40 0.39 0.35 0.31 0.28 0.25 0.24
0.69 0.70 0.69 0.65 0.65 0.66 0.66 0.64 0.56 0.56 0.51 0.47 0.44 0.42 0.43 0.44 0.44 0.44 0.44 0.45 0.45 0.42 0.40 0.39 0.37 0.33 0.29 0.25 0.22 0.22 0.21 0.21
0.63 0.65 0.66 0.63 0.63 0.62 0.62 0.56 0.57 0.55 0.49 0.44 0.42 0.43 0.44 0.44 0.44 0.44 0.45 0.43 0.40 0.38 0.37 0.33 0.28 0.25 0.22 0.22 0.22 0.22 0.22 0.23
0.62 0.61 0.61 0.60 0.60 0.61 0.58 0.57 0.54 0.52 0.46 0.45 0.45 0.47 0.47 0.47 0.46 0.45 0.45 0.41 0.39 0.38 0.33 0.27 0.23 0.21 0.21 0.22 0.24 0.24 0.24 0.23
0.62 0.61 0.60 0.58 0.57 0.55 0.55 0.55 0.54 0.55 0.52 0.51 0.53 0.53 0.53 0.51 0.50 0.46 0.42 0.39 0.38 0.31 0.25 0.20 0.19 0.20 0.23 0.25 0.25 0.24 0.24 0.24
0.60 0.60 0.57 0.54 0.55 0.56 0.53 0.52 0.54 0.56 0.57 0.58 0.57 0.56 0.54 0.49 0.46 0.40 0.37 0.35 0.29 0.21 0.18 0.18 0.19 0.22 0.24 0.24 0.24 0.24 0.24 0.26
0.60 0.57 0.52 0.54 0.56 0.53 0.52 0.52 0.54 0.54 0.54 0.52 0.50 0.49 0.47 0.40 0.38 0.36 0.34 0.25 0.19 0.17 0.17 0.19 0.21 0.22 0.23 0.23 0.25 0.27 0.28 0.29
Wind_Speed
13 13 11 12 14 17 19 20 21 23 24 25 27 28 29 30 30 31 29 29 29 29 30 30 31 31 32 33 34 35 35 36
13 9 10 13 16 18 21 22 24 25 26 27 28 30 30 31 31 32 32 31 31 31 31 32 33 33 33 34 36 37 37 37
12 12 14 17 19 21 23 25 27 28 28 29 30 31 31 32 33 33 33 33 34 34 34 35 35 34 35 36 36 36 37 37
15 16 18 20 21 23 25 27 28 31 32 32 32 33 33 32 33 34 35 36 36 36 36 35 36 36 36 36 36 37 37 36
18 19 21 22 25 25 25 27 29 32 34 35 35 35 35 36 36 36 37 38 38 38 38 37 37 36 35 36 37 37 37 38
21 23 23 25 25 25 27 30 32 34 35 36 37 38 38 37 36 36 36 36 37 38 37 37 37 37 38 40 40 39 39 39
25 24 25 25 26 27 30 32 36 37 39 39 38 39 39 38 36 35 35 35 35 36 37 38 38 40 41 41 40 43 42 42
26 28 28 27 29 30 32 35 38 40 43 43 43 42 41 40 40 39 38 37 37 37 38 39 41 43 42 42 45 45 43 42
29 29 29 30 32 34 37 39 42 46 44 42 41 41 42 43 43 41 40 39 38 38 40 41 43 43 45 47 46 42 42 42
30 30 30 32 35 37 39 43 47 48 45 41 39 41 42 40 37 36 37 37 38 40 40 41 43 45 45 41 40 42 42 42
30 30 32 35 38 40 42 46 49 47 42 40 41 41 38 35 35 36 36 37 39 41 42 44 44 41 39 40 41 41 42 42
32 34 34 37 40 43 45 48 48 45 43 42 42 39 38 37 36 36 37 38 39 39 41 40 38 38 39 40 41 41 42 42
33 34 36 40 44 45 47 49 46 46 43 44 43 41 39 36 34 34 34 35 36 38 38 36 37 37 38 40 42 42 42 42
37 39 41 44 46 47 47 47 46 47 45 45 42 40 36 35 34 33 34 35 36 36 35 35 36 38 40 41 42 42 43 43
39 42 44 46 46 48 46 46 49 50 46 44 41 37 35 33 32 33 34 34 34 34 35 36 38 39 41 42 42 43 43 43
42 45 45 46 47 47 46 48 51 50 45 40 38 36 35 34 34 34 33 34 35 35 36 38 40 40 40 41 40 41 42 42
46 47 47 49 48 46 49 51 51 47 42 38 36 35 35 35 35 33 34 34 35 36 38 39 39 40 40 39 40 41 40 40
48 48 49 48 47 49 52 53 51 46 41 37 36 36 35 32 32 30 33 35 36 37 38 39 40 38 38 39 40 41 39 37
48 49 49 48 50 52 54 51 45 40 37 34 31 30 30 29 30 32 34 35 37 38 39 38 38 38 39 40 39 35 31 29
Wind_Direction
306 291 289 296 302 307 307 305 303 302 302 300 299 296 295 295 291 291 291 290 289 289 289 289 290 289 290 292 293 292 290 288
329 314 299 303 305 308 309 307 305 304 303 302 301 298 296 294 292 291 288 288 288 287 288 289 289 289 290 292 293 292 291 290
328 318 309 305 305 307 307 307 306 305 304 303 302 301 298 295 293 290 286 287 287 287 287 286 287 288 290 293 293 292 292 292
322 315 310 305 305 306 308 309 309 307 304 303 303 301 298 297 296 291 288 286 287 286 287 286 287 288 289 290 291 292 292 292
321 317 313 309 306 306 307 311 311 310 306 301 299 300 299 296 293 291 290 286 286 284 285 285 286 287 289 290 291 291 291 290
321 317 315 313 312 309 307 309 311 310 308 305 300 298 298 297 294 291 291 290 287 284 284 284 285 286 288 290 290 291 289 289
318 318 316 314 315 312 311 310 312 312 310 305 300 297 296 294 292 291 291 290 289 287 284 283 283 286 289 288 288 290 288 287
314 316 315 317 319 318 317 316 315 316 313 307 303 299 296 293 290 289 288 288 288 286 286 284 285 286 285 285 288 287 285 285
316 316 314 315 316 316 317 317 316 317 315 312 307 303 298 293 291 288 287 287 287 287 286 286 286 286 287 287 285 284 284 284
315 315 314 315 316 316 315 316 316 315 314 313 311 308 304 298 292 289 289 290 289 290 290 289 288 289 288 286 284 285 285 284
317 315 313 313 314 315 315 316 316 314 312 311 311 309 307 302 296 292 291 290 290 292 292 292 291 289 287 287 287 287 286 285
318 316 315 316 317 316 315 316 315 313 311 310 311 309 305 302 297 294 292 293 293 293 294 293 290 289 289 289 288 288 287 285
317 317 315 315 314 314 315 315 315 313 310 310 310 308 306 303 300 297 296 296 296 296 296 293 292 292 292 291 291 289 287 285
314 315 315 316 315 315 315 316 315 314 311 310 310 308 306 304 301 299 299 300 299 299 298 296 296 295 295 293 292 290 288 287
316 315 314 315 316 316 316 316 317 315 310 309 308 306 305 305 302 301 302 302 302 301 300 300 299 298 297 295 294 292 290 289
317 316 316 316 317 317 317 317 318 316 310 309 309 307 305 304 303 302 301 303 304 303 303 303 302 301 300 298 296 294 293 290
317 317 317 317 317 317 318 318 318 317 313 308 306 306 305 304 303 302 303 305 306 305 305 305 304 303 302 300 299 297 295 292
317 318 318 318 318 318 318 317 315 314 311 306 305 305 304 303 302 303 305 306 307 308 308 307 306 305 304 303 301 299 296 293
316 317 317 318 317 317 317 317 317 316 313 311 310 308 307 307 306 306 308 308 309 309 310 309 308 307 307 306 304 301 298 295